Orbital elements:
    C/2002 T7 (LINEAR)
Epoch 2004 Apr. 25.0 TT = JDT 2453120.5
T 2004 Apr. 23.05532 TT                                 MPC
q   0.6157496            (2000.0)            P               Q
z  -0.0011901      Peri.  157.69422     +0.43522241     -0.83725973
 +/-0.0000727      Node    94.86877     -0.86804637     -0.29266226
e   1.0007328      Incl.  160.59619     -0.23890781     -0.46189278
Residuals in seconds of arc
021012 704  0.0   0.9+    021111 A38  0.3+  0.3+    021211 A46  0.3+  0.1-
021012 704  0.3-  0.0     021111 J95  0.3+  0.2+    021211 A46  0.2+  0.5-
021012 704  0.4+  0.6+    021111 J95  0.4+  0.2+    021211 A46  0.0   0.3-
021012 704  0.3+  0.1+    021111 670  0.3+  0.4-    021211 A46  0.2-  0.2-
021012 704  0.3-  0.6+    021111 670  0.1-  0.7-    021211 A46  0.3+  0.2-
021014 704  0.2-  0.0     021112 360  0.0   0.2-    021211 A46  0.2-  0.2+
021014 704  0.1-  0.3+    021112 360  0.1+  0.0     021211 A46  0.2+  0.2-
021014 704  0.2+  0.0     021112 360  0.1+  0.2-    021211 A46  0.1+  0.3-
021014 704  0.3-  0.1+    021112 048  0.1+  1.0-    021211 A46  0.2+  0.1-
021016 649  0.0   0.2-    021112 048  0.0   0.1+    021211 A46  0.2-  0.4-
021016 649  0.0   0.0     021112 048  0.7+  0.8-    021211 A46  0.0   0.3-
021016 413  0.3+  0.1+    021113 349  0.0   0.1+    021211 A46  0.2+  0.1-
021016 413  0.4+  0.0     021113 349  0.2+  0.2+    021211 A46  0.1-  0.3-
021016 413  0.0   0.3-    021113 349  0.2-  0.3-    021211 A46  0.2+  0.1+
021017 468  0.1+  0.3-    021113 349  0.6+  0.7-    021211 J97  0.2+  0.2-
021017 468  0.1-  0.1+    021114 785  0.1-  0.3-    021211 J97  0.7-  1.1+
021017 413  0.3+  0.1-    021114 785  0.1-  0.7+    021213 349  0.1+  0.1-
021017 413  0.6+  0.3+    021119 785  0.0   0.6-    021213 349  0.1+  0.1+
021017 413  0.3+  0.1-    021119 785  0.8-  0.5-    021213 349  0.2+  0.0
021018 734  0.2-  1.0-    021121 H43  0.4-  0.4+    021213 360  0.0   0.0
021018 734  0.6-  1.9+    021123 340  0.1-  1.6+    021213 349  0.0   0.2+
021018 J95  0.7+  0.3-    021123 340  1.5+  1.5+    021213 349  0.1-  0.1-
021018 J95  0.3+  0.0     021123 340  0.3+  0.8+    021213 360  0.3-  0.0
021018 J95  0.0   0.1-    021123 340  1.3+  1.0+    021214 204  0.2-  0.1+
021018 J95  0.7-  0.5+    021123 340  0.1+  0.3-    021214 204  0.0   0.2+
021018 J95  1.3+  0.5-    021125 670  0.2-  0.1+    021214 204  0.2-  0.1+
021019 J95  0.0   0.1+    021125 670  0.5+  0.4-    021214 204  0.2-  0.0
021019 J95  0.3+  0.0     021126 349  0.1+  0.1-    021214 204  0.1-  0.1-
021019 J95  0.7+  0.1-    021126 349  0.2+  0.1-    021214 704  0.2+  0.2+
021019 J95  0.3-  0.5-    021126 349  0.2+  0.1-    021214 H43  0.9+  0.5-
021019 966  0.5-  0.0     021126 349  0.2-  0.2-    021214 704  0.2+  0.5+
021019 966  0.4-  0.2+    021126 349  0.1+  0.1-    021214 704  0.8+  0.3+
021020 941  0.9-  1.0+    021126 349  0.1-  0.0     021214 H43  0.9-  0.9-
021020 941  0.6-  1.0+    021127 H43  0.1+  0.5+    021214 704  0.3-  0.6+
021020 941  0.4-  0.9+    021127 H43  0.9+  0.4+    021214 340  0.6-  0.6+
021020 118  0.1-  0.3+    021127 H43  0.1+  0.2-    021214 340  0.1-  0.2+
021020 941  0.5-  0.9+    021127 355  0.5+  0.5-    021214 340  0.4+  0.1-
021020 941  0.4-  0.8+    021127 355  0.7+  0.3-    021214 939  0.8-  0.9+
021020 118  0.3+  0.3+    021127 355  0.2+  0.0     021214 939  0.6-  0.6+
021020 118  0.2-  0.4+    021127 355  0.4+  0.1+    021214 939  0.2-  0.1+
021020 118  0.2-  0.1+    021127 J97  0.0   1.1+    021215 H43  0.0   0.4-
021020 620  1.5+  0.9+    021127 J97  0.5+  0.6+    021215 H43  0.6-  0.5+
021020 620  0.9+  1.4+    021128 H43  0.2+  0.6-    021215 J97  0.3-  0.2+
021020 620  0.2-  0.1-    021128 H43  0.2+  0.2+    021215 J97  0.2-  0.9+
021020 620  0.3-  0.6+    021128 340  0.2+  0.2+    021216 458  0.1-  0.3-
021020 620  0.4+  1.0+    021128 340  0.3+  0.3+    021216 458  0.1-  0.1+
021020 620  0.2+  0.9+    021128 340  0.6+  0.3-    021216 458  0.4-  0.0
021020 649  0.0   0.0     021128 360  0.2+  0.3+    021217 785  0.4+  0.5+
021020 649  0.0   0.0     021128 360  0.3+  0.2+    021217 785  0.0   0.6-
021020 670  0.2+  0.5+    021128 J97  0.4+  0.4+    021221 H43  0.4-  0.2+
021020 670  0.5+  0.1-    021128 J97  0.6+  0.1+    021221 H43  0.5-  0.2+
021023 J95  0.3+  0.0     021129 785  0.5-  0.1+    021221 H43  0.1-  0.5-
021023 J95  0.0   0.1-    021129 785  0.2-  0.1-    021221 213  1.2+  0.5+
021023 J95  0.3-  0.2-    021129 785  0.5+  0.1+    021221 213  0.5+  0.5-
021023 850  0.2+  0.2-    021129 785  0.3-  0.3+    021221 213  0.5-  0.3-
021023 850  0.0   0.6-    021129 785  0.5-  0.0     021221 232  1.1-  1.7-
021023 850  0.0   0.0     021129 H43  0.6+  1.3+    021221 232  1.3-  0.3-
021026 176  0.8+  0.5+    021129 H43  0.4+  1.0+    021221 232  0.3-  0.4+
021026 176  0.5+  0.0     021129 213  0.1+  0.5+    021222 340  0.3-  0.3+
021026 176  0.2-  0.7-    021129 213  0.3-  0.0     021222 340  0.5+  0.6+
021026 176  0.2-  0.8-    021129 213  0.4-  0.0     021222 340  0.3+  0.4-
021026 J95  0.4-  0.0     021130 785  0.3-  0.6-    021222 340  0.3+  0.0
021026 J95  1.2-  0.9-    021130 785  0.1-  0.1-    021222 J97  0.1+  0.4+
021026 587  0.4-  0.3-    021130 232  1.0-  1.4+    021222 J97  0.3+  0.7+
021026 587  0.3-  0.4-    021130 232  0.8-  0.5+    021223 349  0.7-  0.2+
021027 704  0.1-  0.3-    021130 232  0.7-  0.2+    021223 349  0.3-  0.0
021027 704  0.6-  0.3-    021201 921  0.4+  0.7-    021223 349  0.5-  0.1-
021027 704  0.6-  0.1-    021201 921  0.8-  0.8-    021223 349  0.4-  0.1+
021027 J95  0.1-  0.0     021201 921  0.5-  0.7+    021223 349  0.2-  0.1+
021028 J95  0.2+  0.3-    021201 921  1.0+  0.5-    021224 340  0.2+  0.1-
021028 J95  0.2+  0.0     021201 H43  0.9+  0.6+    021224 340  0.4+  0.1-
021028 926  0.1-  0.4+    021201 H43  0.9+  0.3-    021224 340  0.1+  0.3+
021028 926  0.2-  0.5-    021201 235  0.8+  0.9+    021224 340  0.7+  0.7+
021028 926  0.6+  0.4-    021201 A46  0.4-  0.3-    021224 J97  0.2-  0.4+
021028 670  0.3+  0.4-    021201 A46  0.1-  0.1-    021224 J97  0.5+  0.6-
021028 670  0.5+  1.0-    021201 A46  0.2-  0.0     021225 H43 (5.4+  0.7+)
021029 118  0.1+  0.1-    021201 A46  0.1+  0.2-    021226 H43  0.1+  0.2+
021029 118  0.0   0.1-    021201 A46  0.1+  0.4-    021226 H43  0.4+  1.0+
021029 118  0.1+  0.3-    021201 A46  0.4-  0.1-    021226 340  0.2+  0.2+
021029 118  0.1+  0.2+    021201 A46  0.1-  0.3-    021226 340  0.1+  0.1-
021029 854  0.1-  0.3-    021201 A46  0.1+  0.2-    021226 355  0.2+  0.0
021029 854  0.1+  0.3-    021201 A46  0.0   0.4-    021226 340  0.3+  0.3-
021029 854  0.2+  0.0     021201 A46  0.0   0.1-    021226 355  0.2+  0.0
021029 696  0.1+  0.0     021201 A46  0.3+  0.4-    021226 355  0.4+  0.3-
021029 696  0.4+  0.1-    021201 A46  0.3-  0.1-    021226 213  0.0   0.2+
021029 704  0.0   0.2-    021201 A46  0.1-  0.0     021226 213  0.0   0.1+
021029 704  0.1+  0.1-    021201 A46  0.0   0.3-    021226 213  0.3+  0.3+
021029 704  0.5-  0.4-    021201 A46  0.2+  0.4-    021227 360  0.3-  0.1+
021029 704  0.3-  0.5-    021201 235  0.2+  0.2-    021227 360  0.3-  0.1+
021029 704  0.1+  0.4-    021202 H43  0.9-  1.4-    021227 213  0.1+  0.1-
021029 704  0.8-  0.3-    021202 349  0.3+  0.0     021227 213  0.5+  0.1+
021029 926  0.4+  0.1-    021202 349  0.2+  0.2-    021227 213  0.2-  0.0
021029 704  0.1-  0.6-    021202 349  0.2+  0.1-    021228 H43  0.8+  0.0
021029 704  0.7-  0.4-    021202 349  0.2+  0.1+    021228 H43  1.0+  0.6+
021029 926  0.1+  0.2+    021202 349  0.4+  0.1-    021228 349  0.0   0.0
021029 704  0.6-  0.1-    021203 H43  1.1+  0.3-    021228 349  0.2-  0.1+
021029 926  0.3-  0.1-    021203 213  0.2+  0.1-    021228 355  0.1-  0.2-
021029 213  0.5-  0.3+    021203 213  0.2+  0.0     021228 349  0.2-  0.3+
021029 213  0.1+  0.8-    021203 213  0.2+  0.2+    021228 349  0.0   0.5+
021029 213  0.6-  1.1-    021203 442  1.1-  0.1+    021228 355  0.1+  0.2-
021029 213  0.7-  1.2-    021204 J97  0.3+  0.6+    021228 349  0.4-  0.3+
021030 349  0.9-  0.1-    021204 J97  0.1+  0.7+    021228 355  0.1+  0.0
021030 349  0.8-  0.2+    021204 213  0.2+  0.3+    021228 J87  0.4-  0.2-
021030 349  0.9-  0.1+    021204 213  0.6+  0.1-    021228 J87  0.6-  0.1-
021030 349  1.4-  0.1+    021204 213  0.5+  0.2+    021228 939  0.4+  0.2-
021031 118  0.2+  0.2-    021205 213  0.4-  0.0     021228 939  0.4-  0.0
021031 118  0.0   0.3-    021205 213  0.5+  0.3-    021228 204  0.0   0.1+
021031 118  0.2+  0.1+    021205 213  0.2+  0.1-    021228 939  1.1-  0.3+
021031 926  0.0   0.2-    021206 704  0.1-  0.0     021228 204  0.1-  0.0
021031 926  0.1+  0.2-    021206 H43  0.2+  0.4+    021228 445  0.7+  0.1+
021031 926  0.1+  0.2-    021206 704  0.4+  0.3+    021228 204  0.1-  0.1-
021031 926  0.0   0.2-    021206 704  1.1-  0.6+    021228 204  0.0   0.0
021031 926  0.0   0.0     021206 939  1.1-  0.2-    021228 445  0.2+  0.0
021031 926  0.1+  0.1-    021206 939  0.6-  0.3-    021228 204  0.1-  0.2-
021101 170  1.2+  0.2+    021206 939  0.2-  0.2-    021228 445  1.9+  0.4-
021101 170  0.1+  1.0-    021207 232  0.1+  0.3+    021228 232  0.2+  0.6+
021101 411  0.2-  0.1+    021207 232  0.1-  0.7+    021228 213  0.4-  0.8+
021101 411  0.3+  0.1-    021207 232  0.3-  0.9+    021228 213  0.2+  1.5+
021101 411  0.3+  0.1-    021207 J91  0.4-  0.7-    021228 213 (0.2+  2.1+)
021101 411  0.4+  0.5+    021207 750  0.1-  0.0     021228 232  0.1-  0.8+
021101 349  0.3+  0.3-    021207 750  0.0   0.1+    021228 232  0.9-  1.1+
021101 349  0.4-  0.4-    021207 704  1.0-  0.7-    021228 458  0.1-  0.8+
021101 349  0.3-  0.2-    021207 704  0.8-  0.6-    021228 458  0.5-  0.1-
021101 349  0.2-  0.3+    021207 H43  0.2-  0.4+    021229 A02  0.0   0.5-
021101 300  0.3+  0.6+    021207 704  1.1-  0.5-    021229 A02  0.4+  0.7-
021101 300  0.1-  0.3-    021207 704  1.1-  0.6-    021229 A02  0.3+  0.3-
021101 213  1.2+  0.5+    021207 H43  0.1+  0.1+    021229 204  0.4+  0.1+
021101 213  0.3-  0.4-    021207 704  1.1-  0.7-    021229 204  0.0   0.1+
021101 213  0.3+  1.2+    021208 785  0.3-  0.1+    021229 H43  0.2-  0.5+
021102 212  0.8+  0.2+    021208 785  0.4-  0.4+    021229 340  0.3+  0.3+
021102 212  0.0   0.3-    021208 H43  0.9+  0.4-    021229 340  0.0   0.3-
021103 349  0.3-  0.4+    021208 785  2.0-  0.1+    021229 340  0.6+  0.1-
021103 349  0.6-  0.3+    021208 785  1.5-  0.6-    021230 785  0.7-  0.3-
021103 349  0.5-  0.1-    021209 A46  0.2+  0.4-    021230 785  0.2-  0.9-
021103 349  0.4-  0.0     021209 A46  0.2-  0.4-    021230 785  0.6-  0.0
021103 349  0.1-  0.0     021209 A46  0.2+  0.4-    021230 785  0.8-  0.2-
021104 349  0.0   0.3-    021209 A46  0.6-  0.4-    021230 785  0.3-  0.1+
021104 349  0.2+  0.3-    021209 A46  0.2-  0.3-    021230 349  0.1-  0.4-
021104 349  0.1+  0.1-    021209 A46  0.1+  0.2-    021230 349  0.3-  0.2+
021104 349  0.2+  0.4-    021209 A46  0.1+  0.3-    021230 411  0.0   0.2+
021104 349  0.1-  0.1-    021209 A46  0.0   0.4-    021230 349  0.1-  0.2-
021104 349  0.1+  0.1-    021209 A46  0.0   0.1-    021230 411  0.2-  0.3+
021104 379  1.1+  0.2-    021209 A46  0.1+  0.0     030101 340  0.6+  0.2+
021104 379  0.4+  0.1-    021209 A46  0.2-  0.5-    030101 340  0.0   0.1+
021104 888  0.2+  0.1+    021209 A46  0.5-  0.0     030101 340  0.4+  0.3+
021104 888  0.1+  0.3+    021210 704  0.2+  0.5-    030101 235  1.4-  1.0+
021104 888  0.1-  0.0     021210 704  0.2+  0.2+    030102 355  0.0   0.4-
021104 888  0.0   0.3-    021210 704  0.2+  0.4-    030102 355  0.6+  0.0
021105 204  0.1+  0.0     021210 704  0.1+  0.1-    030102 355  0.2+  0.5-
021105 204  0.1+  0.2-    021210 704  0.2+  0.6-    030102 442  0.4-  0.3+
021105 204  0.3+  0.2-    021210 704  0.4+  0.0     030102 442  0.5+  0.1-
021105 213  1.2-  0.8+    021210 704  0.1+  0.4-    030103 J95  0.3+  0.0
021105 213  0.3-  1.4+    021210 379  0.6+  0.2-    030103 J95  0.3+  0.1+
021106 340  0.2+  0.1-    021210 379  0.3+  0.2-    030103 J95  0.2+  0.1+
021106 340  1.1+  0.7-    021210 379  0.3+  0.1-    030103 J95  0.1-  0.1-
021106 340  0.6+  0.1-    021210 379  0.2+  0.0     030103 H43 (2.6-  0.6+)
021106 340  0.2+  0.4+    021210 340  0.6+  0.0     030103 H43  0.6-  0.3-
021106 340  0.4+  0.5+    021210 340  0.2+  0.2+    030103 H43 (1.4+  2.5-)
021106 379  0.4-  0.8+    021210 340  0.0   0.2-    030103 046  0.0   0.4-
021106 379  0.3+  0.8+    021210 340  0.7-  0.2-    030103 046  0.5+  0.7-
021107 048  0.8-  0.7+    021210 349  0.0   0.2-    030103 046  0.0   0.1+
021107 048  0.6-  0.6+    021210 349  0.2+  0.2-    030103 046  0.2-  0.0
021107 048  0.5-  0.4+    021210 349  0.1+  0.3-    030103 046  0.0   0.2-
021107 048  1.0-  0.4+    021210 349  0.1-  0.3-    030103 213  0.0   0.3-
021107 J95  0.0   0.2-    021210 A46  0.2+  0.3-    030103 213  0.4+  0.0
021107 J95  0.3+  0.2-    021210 A46  0.6-  0.4-    030103 213  0.5+  0.1-
021109 118  0.1+  0.1-    021210 A46  0.6-  0.6-    030103 232  0.1+  0.6+
021109 118  0.2+  0.1-    021210 A46  0.3-  0.2-    030103 232  0.0   0.5+
021109 118  0.1+  0.1-    021210 A46  0.1+  0.3-    030103 232  0.0   0.3+
021109 411  0.6+  0.2-    021210 A46  0.3+  0.1-    030104 H43  0.5+  0.4+
021109 411  0.3+  0.3-    021210 A46  0.1+  0.5+    030104 H43  0.1+  0.2-
021109 349  0.8-  0.3+    021210 A46  0.2+  0.1-    030104 H43  0.8+  0.0
021109 349  0.3-  0.3-    021210 235(37.5-  1.4+)   030104 411  0.2-  0.4-
021109 349  0.2-  0.3-    021210 235  0.4-  1.3+    030104 411  0.2-  0.2-
021109 349  0.4-  0.8-    021211 670  0.0   0.1+    030104 348  0.2-  0.5-
021110 130  0.2-  0.8-    021211 670  0.0   0.0     030104 348  0.5-  0.6-
021110 130  0.0   0.4-    021211 704  0.1-  0.1+    030104 213  0.0   0.3+
021110 379  0.5-  0.0     021211 704  0.1+  0.6+    030104 213  0.3+  0.2+
021110 379  0.2+  0.4-    021211 H43  0.0   0.9-    030104 213  0.2+  0.3-
021110 048  0.0   0.5+    021211 704  0.5+  0.3-    030104 170  0.1+  0.0
021110 048  0.3+  0.1-    021211 H43  1.6+  0.5-    030104 170  0.8+  0.1+
021110 048  1.4-  0.0     021211 704  0.4-  1.1-    030104 170  0.3-  0.1-
021110 048  1.9-  0.4-    021211 704  0.0   0.0     030104 170  0.9-  0.1-
021110 A46  0.4+  0.1+    021211 379  0.1-  0.6+    030104 170  0.6-  0.1+
021110 A46  0.7+  0.0     021211 379  0.2-  0.2-    030105 H43  0.3+  0.5-
021110 A46  0.8+  0.1+    021211 379  0.6+  0.3+    030105 H43  0.3+  0.3+
021110 A46  1.2+  0.9-    021211 379  0.8+  0.1-    030105 H43  0.1-  0.3-
021111 A38  0.2-  0.9+    021211 A46  0.4-  0.0

